www.pogodaiklimat.ru

Погода и климат >> Архив погоды >> Россия >> Камчатский край >> Ключи


АРХИВ ПОГОДЫ в Ключах

Время (UTC), дата Ветер
(напр.,м/с)
 
Видим.   Явления Облачность Т
(С)
Тd
(С)
f
(%)
Тe
(С)
Тes
(С)
Комфортность P
(гПа)
Po
(гПа)
Тmin
(С)
Tmax
(С)
R
(мм)
R24
(мм)
S
(см)
00 14.01 З 2 2000 м мгла {туман} 9/0
[Ac trans Ci fib]
-13.4 -15.2 86 -18 -18 1012.0 1008.2 -14.1
03 14.01 З 2 20 км 9/8 600 м
[Sc Ac trans Ci fib]
-11.8 -13.5 87 -16 -16 1011.3 1007.5
06 14.01 ЮВ 1 10 км слаб. ливневой снег 10/6 600 м
[Sc As trans]
-11.6 -13.3 87 -14 -14 1011.5 1007.7
09 14.01 В 1 10 км слаб. ливневой снег 10/8 720 м
[Cb cap Ac As]
-11.0 -12.7 87 -13 -13 1011.4 1007.6 -11.0 0.0
12 14.01 З 3 10 км слаб. ливневой снег 10/8 720 м
[Cb cap Ac As]
-12.4 -14.2 86 -18 -18 1011.6 1007.8
15 14.01 З 2 4000 м слаб. ливневой снег 10/10 330 м
[Cb cap]
-13.4 -15.3 86 -18 -18 1011.8 1008.0
18 14.01 З 2 4000 м слаб. ливневой снег 10/10 330 м
[Cb cap]
-15.5 -17.6 84 -21 -21 1012.4 1008.5
21 14.01 З 2 20 км туман на расстоянии {ливн. осадки} 9/4 1000 м
[Sc diur, vesp Ac trans]
-20.4 -23.3 78 -26 -26 1013.6 1009.7 -20.4 1 128
00 15.01 З 2 500 м переохл. туман {ливн. осадки} 6/0
[Ac trans]
-17.3 -19.6 82 -23 -22 1014.6 1010.7 -20.5
03 15.01 ЮЗ 1 50 км {туман} 4/0
[Ac trans Ci fib]
-16.0 -18.2 83 -19 -18 1014.4 1010.5
06 15.01 штиль 0 20 км {туман} 3/0
[Ac trans]
-20.0 -22.7 79 -20 -20 1015.2 1011.2
09 15.01 З 1 10 км туман на расстоянии 9/0
[Ac trans]
-20.6 -23.4 78 -24 -24 1016.2 1012.2 -15.4
12 15.01 З 3 20 км {ливн. осадки} 3/0
[Ac trans]
-23.5 -26.7 75 -32 -32 опасность
обморожения
1017.0 1013.0
15 15.01 СЗ 2 20 км 6/0
[Ac trans]
-26.6 -30.4 70 -34 -34 опасность
обморожения
1017.7 1013.6
18 15.01 З 2 20 км туман на расстоянии 3/0
[Ac trans]
-30.5 -34.5 68 -38 -38 опасность
обморожения
1018.4 1014.3
21 15.01 С 1 20 км туман на расстоянии 3/3 1000 м
[Sc Ac trans]
-30.9 -35.0 67 -35 -35 опасность
обморожения
1019.2 1015.0 -31.4 0.2 126
00 16.01 штиль 0 500 м переохл. туман 3/0
[Ac trans]
-28.9 -32.8 69 -29 -28 1019.4 1015.3 -31.7
03 16.01 штиль 0 20 км в посл. час туман 3/0
[Ac trans]
-24.5 -28.1 72 -25 -24 1018.4 1014.4
06 16.01 В 2 20 км туман на расстоянии 3/1 1000 м
[Sc Ac trans]
-25.3 -28.7 73 -32 -32 опасность
обморожения
1018.5 1014.4
09 16.01 В 2 20 км 4/0
[Ac trans]
-28.2 -31.9 70 -35 -35 опасность
обморожения
1017.9 1013.8 -23.7
12 16.01 штиль 0 20 км туман на расстоянии 4/0
[Ac trans]
-28.4 -32.3 69 -28 -28 1017.3 1013.2
15 16.01 штиль 0 200 м переохл. туман ?/? -29.1 -33.0 69 -29 -29 1015.9 1011.8
18 16.01 штиль 0 500 м переохл. туман 4/0
[Ac trans]
-28.7 -32.5 70 -29 -29 1014.1 1010.0
21 16.01 штиль 0 20 км туман на расстоянии 4/0
[Ac trans]
-26.6 -30.3 71 -27 -27 1011.9 1007.8 -30.8 125
00 17.01 З 4 2000 м слаб. ливневой снег {туман} 10/10 300 м
[Cb cap]
-22.3 -25.3 76 -32 -32 опасность
обморожения
1010.1 1006.1
03 17.01 З 3 1000 м ливневой снег {метель} 10/10 200 м
[Cb cap]
-19.2 -21.9 79 -27 -27 1006.6 1002.7
06 17.01 З 5 1000 м ливневой снег {метель} 10/10 200 м
[Cb cap]
-19.0 -21.7 79 -29 -29 1003.8 999.9
09 17.01 З 7-11
{11}
500 м ливневой снег {метель} 10/10 200 м
[Cb cap]
-19.1 -21.7 80 -31 -31 опасность
обморожения
1001.8 997.9 -18.7 3
12 17.01 З 9-13
{14}
200 м ливневой снег {метель} 10/10 200 м
[Cb cap]
-18.9 -21.5 80 -32 -32 опасность
обморожения
999.9 996.0
15 17.01 З 10-16
{16}
200 м ливневой снег {метель} 10/10 200 м
[Cb cap]
-17.9 -20.5 80 -31 -31 опасность
обморожения
999.0 995.1
18 17.01 З 8-11
{16}
200 м ливневой снег {метель} 10/10 200 м
[Cb cap]
-16.7 -19.4 80 -28 -28 999.9 996.0
21 17.01 СЗ 4
{11}
1000 м ливневой снег {метель} 10/10 200 м
[Cb cap]
-16.4 -19.0 80 -25 -25 1001.3 997.5 -19.1 17 132
00 18.01 З 4 50 км позёмок {ливн. осадки} 8/1 1000 м
[Sc diur, vesp Ac trans Ci fib]
-16.0 -19.3 76 -24 -24 1002.3 998.5
03 18.01 З 4 50 км ясно -17.1 -20.9 72 -25 -25 1001.7 997.8
06 18.01 ЮВ 1 20 км туман на расстоянии 1/0
[Ac trans]
-23.2 -26.3 76 -27 -27 1002.4 998.4
09 18.01 В 2 500 м туман ясно -23.8 -26.8 76 -30 -30 1003.0 999.0 -16.0 0.0
12 18.01 штиль 0 500 м переохл. туман ясно -25.9 -29.4 72 -26 -26 1003.4 999.4
15 18.01 В 2 500 м переохл. туман ясно -25.9 -29.3 73 -33 -33 опасность
обморожения
1003.5 999.5
18 18.01 В 1 500 м переохл. туман ясно -26.8 -30.4 71 -31 -31 опасность
обморожения
1002.8 998.7
21 18.01 В 1 10 км слаб. ливневой снег {туман} 10/8 750 м
[Cb cap Ac As]
-21.8 -24.9 76 -25 -25 1001.7 997.8 -28.7 1 131
00 19.01 штиль 0 50 км {ливн. осадки, туман} 10/8 1000 м
[Sc Ac As]
-19.9 -22.6 79 -20 -20 1000.1 996.3
03 19.01 штиль 0 50 км 10/6 1000 м
[Sc Ac As]
-16.4 -18.6 83 -16 -16 997.0 993.2
06 19.01 В 1 10 км слаб. ливневой снег 10/8 750 м
[Cb cap Ac As]
-14.9 -17.0 84 -17 -17 996.1 992.3
09 19.01 В 1 10 км слаб. ливневой снег 10/8 720 м
[Cb cap Ac As]
-13.4 -15.4 85 -16 -16 996.0 992.2 -13.4 0.6
12 19.01 В 1 10 км слаб. ливневой снег 10/8 750 м
[Cb cap Ac As]
-12.1 -13.9 86 -14 -14 995.8 992.0
15 19.01 В 4 10 км слаб. ливневой снег 10/8 700 м
[Cb cap Ac As]
-10.2 -11.7 89 -17 -17 995.9 992.2
18 19.01 ЮВ 1 4000 м слаб. ливневой снег {метель} 10/10 420 м
[Cb cap]
-7.4 -8.6 91 -10 -10 995.3 991.6
21 19.01 В 3 1000 м слаб. ливневой снег 10/10 330 м
[Cb cap]
-6.1 -7.2 92 -12 -12 996.2 992.6 -13.4 3 131
00 20.01 ЮВ 5 10 км слаб. ливневой снег {метель} 10/8 700 м
[Cb cap Ac As]
+0.6 -2.1 82 -5 -5 996.2 992.6
03 20.01 ЮВ 4 4000 м слаб. ливневой снег {метель} 10/10 420 м
[Cb cap]
+1.5 -2.9 73 -3 -3 995.1 991.6
06 20.01 ЮВ 3 10 км слаб. ливневой снег {метель} 10/8 700 м
[Cb cap Ac As]
+0.6 -3.5 74 -4 -4 993.5 990.0
09 20.01 ЮВ 4 4000 м слаб. ливневой снег {метель} 10/10 330 м
[Cb cap]
-0.3 -1.5 92 -6 -6 991.7 988.1 +1.5 2
12 20.01 В 6-11
{16}
2000 м слаб. ливневой снег {метель} 10/10 240 м
[Cb cap]
-1.1 -1.9 94 -8 -8 993.3 989.7
15 20.01 В 7-10
{15}
500 м ливневой снег {метель} 10/10 200 м
[Cb cap]
-1.1 -1.9 94 -9 -9 996.0 992.4
18 20.01 В 4
{10}
2000 м слаб. ливневой снег {метель} 10/10 300 м
[Cb cap]
-0.6 -2.2 89 -6 -6 999.1 995.5
21 20.01 В 4
{11}
4000 м слаб. ливневой снег {метель} 10/8 600 м
[Cb cap Ac As]
-0.7 -1.9 92 -6 -6 1001.5 997.9 -1.4 3 125

 

Местоположение метеостанции Ключи (Камчатский край, Россия): широта 56.32 долгота 160.80 высота над уровнем моря 29 м.

В архиве по умолчанию представлена погода в Ключах за последнюю неделю. Архивные данные за месяц целиком и за предыдущие месяцы, начиная с января 2011 года, Вы можете получить, выбрав интересующий диапазон дат из раскрывающегося списка и нажав кнопку "Ввод!".


*Определитесь, кто Вы:
робот инопланетянин человек

Внимание! Время в таблицах - всемирное. Для получения местного времени необходимо прибавить поправку, которая равна 12 ч.

Смотрите также архив погоды в соседних городах и на ближайших метеорологических станциях:

Погода в Козыревске (Камчатский край, Россия) (69 км)
Погода в Усть-Камчатске (Камчатский край, Россия) (118 км)
Погода в Эссо (Камчатский край, Россия) (137 км)
Погода на Мысе Африка (Камчатский край, Россия) (155 км)
Погода в Долиновке (Камчатский край, Россия) (175 км)
Погода в Тигиле (Камчатский край, Россия) (207 км)
Погода на Мысе Озерном (Камчатский край, Россия) (207 км)
Погода в Мильково (Камчатский край, Россия) (233 км)
Погода в Семячике (Камчатский край, Россия) (251 км)
Погода в Усть-Воямполке (Камчатский край, Россия) (263 км)

Пояснения к столбцам:

Ветер - указаны скорость ветра в м/с - средняя за 10 мин, порывы в срок и между сроками (в фигурных скобках) и направление, откуда дует ветер: С - северный, СВ - северо-восточный, В - восточный, ЮВ - юго-восточный, Ю - южный, ЮЗ - юго-западный, З - западный, СЗ - северо-западный.
Видимость - горизонтальная дальность видимости в метрах или километрах. При видимости от 1 до 10 км при отсутствии осадков обычно наблюдается дымка, при ухудшении видимости до 1 км и менее - туман. В сухую погоду видимость может ухудшаться дымом, пылью или мглою.
Явления - указаны атмосферные явления, наблюдавшиеся в срок или в последний час перед сроком; фигурными скобками обозначены явления, наблюдавшиеся между сроками (за 1-3 часа до срока); квадратными скобками обозначены град или гололедные отложения с указанием их диаметра в мм.
Облачность - указаны через наклонную черту общая и нижняя облачность в баллах и высота нижней границы облаков в метрах; квадратными скобками обозначены формы облаков: Ci - перистые, Cs - перисто-слоистые, Cc - перисто-кучевые, Ac - высококучевые, As - высокослоистые, Sc - слоисто-кучевые, Ns - слоисто-дождевые, Cu - кучевые, Cb - кучево-дождевые. Подробнее классификацию облаков см. в Атласе облаков (PDF).
T - Температура воздуха - температура, измеренная на высоте 2 м над землей.
Td - Температура точки росы - температура, при понижении до которой содержащийся в воздухе водяной пар достигнет насыщения.
f - Относительная влажность воздуха - влажноcть воздуха, измеренная на высоте 2 м над землей.
Te - Эффективная температура - температура, которую ощущает одетый по сезону человек в тени. Характеристика душности погоды. При расчете учитывается влияние влажности воздуха и скорости ветра на теплоощущения человека.
Tes - Эффективная температура на солнце - температура, которую ощущает человек, с поправкой на солнечный нагрев. Характеристика знойности погоды. Зависит от высоты солнца над горизонтом, облачности и скорости ветра. Ночью, в пасмурную погоду, а также при ветре 12 м/с и более поправка равна нулю.
P - Атмосферное давление - приведенное к уровню моря атмосферное давление.
Po - Атмосферное давление - измеренное на уровне метеостанции атмосферное давление.
Tmin - Минимальная температура - минимум температуры воздуха на высоте 2 м над землей.
Tmax - Максимальная температура - максимум температуры воздуха на высоте 2 м над землей.
R - Количество осадков - Количество выпавших осадков за период времени, мм. При наведении курсора мыши на число - период времени, за который выпало указанное количество осадков.
R24 - Количество осадков - Количество выпавших осадков за 24 часа, мм.
S - Снежный покров - Высота снежного покрова, см. При наведении курсора мыши на число - состояние снежного покрова и степень покрытия местности в баллах.